Date,TemperatureHighF,TemperatureAvgF,TemperatureLowF,DewpointHighF,DewpointAvgF,DewpointLowF,HumidityHigh,HumidityAvg,HumidityLow,PressureMaxIn,PressureMinIn,WindSpeedMaxMPH,WindSpeedAvgMPH,GustSpeedMaxMPH,PrecipitationSumIn
2013-1-23,50.4,49.0,48.2,49.0,48.2,46.4,99,97,86,0.00,0.00,4,2,8,0.00
2013-1-24,59.1,52.3,47.9,54.6,50.7,47.8,100,95,81,0.00,0.00,4,1,7,0.49
2013-1-25,62.4,54.6,49.5,55.0,52.5,49.2,100,93,75,0.00,0.00,5,2,9,0.00
2013-1-26,49.8,46.8,43.1,49.7,46.7,43.1,100,100,99,0.00,0.00,2,1,4,0.00
2013-2-1,68.8,57.4,44.0,47.2,45.3,43.1,96,67,42,0.00,0.00,4,2,8,0.00
2013-2-2,60.0,47.2,40.2,50.3,44.5,40.0,100,91,67,0.00,0.00,5,2,10,0.00
2013-2-3,61.6,48.2,38.9,48.4,44.3,38.6,100,88,60,0.00,0.00,5,2,10,0.00
2013-2-4,41.0,40.0,39.0,40.9,39.8,38.8,100,99,99,0.00,0.00,2,1,3,0.00
2013-2-7,53.0,44.0,38.9,39.8,38.5,34.9,98,83,51,0.00,0.00,6,3,14,0.00
2013-2-8,58.9,45.1,34.2,39.6,35.1,29.9,99,73,33,0.00,0.00,8,3,17,0.12
2013-2-9,60.7,43.6,30.3,35.2,30.2,22.8,96,65,26,0.00,0.00,6,2,13,0.00
2013-2-10,64.5,44.0,29.4,40.2,34.3,28.5,97,73,33,0.00,0.00,5,2,14,0.00
2013-2-11,61.3,41.6,33.4,40.7,36.6,31.8,97,85,37,0.00,0.00,5,2,8,0.00
2013-2-12,63.1,46.4,32.0,42.4,38.4,31.7,99,78,43,0.00,0.00,5,2,12,0.00
2013-2-13,66.5,46.5,32.5,46.7,40.1,32.1,99,81,47,0.00,0.00,6,2,10,0.00
2013-2-14,71.0,50.0,33.6,52.0,42.7,33.3,99,79,44,0.00,0.00,6,2,10,0.00
2013-2-15,72.2,51.8,36.4,47.0,41.1,36.0,99,73,33,0.00,0.00,4,1,9,0.00
2013-2-16,56.8,43.8,39.5,45.9,41.3,38.7,98,92,66,0.00,0.00,2,1,5,0.00
2013-2-18,54.4,53.1,51.8,42.9,42.2,41.1,70,67,61,0.00,0.00,3,3,8,0.00
2013-2-19,51.8,44.3,35.7,42.1,34.2,29.9,99,69,49,0.00,0.00,8,4,19,0.00
2013-2-20,59.5,42.9,30.7,35.7,32.0,29.4,96,70,34,0.00,0.00,10,4,18,0.21
2013-2-26,70.7,54.4,34.4,39.2,33.3,23.0,89,51,17,0.00,0.00,6,3,13,0.00
2013-2-27,70.6,51.7,32.8,47.3,38.3,31.4,96,66,32,0.00,0.00,7,2,17,0.00
2013-2-28,71.4,56.6,45.2,54.0,49.1,44.2,98,78,51,0.00,0.00,6,2,10,0.00
2013-3-1,74.2,55.2,41.4,51.4,46.6,41.3,100,78,35,0.00,0.00,5,2,11,0.00
2013-3-6,55.6,48.3,38.2,43.8,40.8,36.3,99,77,51,0.00,0.00,8,4,17,0.00
2013-3-7,54.6,44.6,35.8,43.0,38.7,35.5,99,82,49,0.00,0.00,5,2,9,0.00
2013-3-8,64.2,48.6,35.1,42.4,38.0,32.5,99,72,31,0.00,0.00,9,3,18,0.00
2013-3-9,71.4,51.7,35.8,46.5,39.7,31.0,97,69,23,0.00,0.00,6,2,14,0.00
2013-3-10,71.8,53.0,36.1,45.1,38.6,26.2,98,68,21,0.00,0.00,7,3,14,0.00
2013-3-11,43.5,41.6,40.1,42.6,40.7,39.4,97,97,96,0.00,0.00,2,1,3,0.00
2013-3-13,79.7,60.9,40.1,53.5,47.8,39.9,99,68,26,0.00,0.00,5,2,9,0.00
2013-3-14,73.6,55.9,44.6,54.8,48.6,44.0,99,80,37,0.00,0.00,5,2,9,0.00
2013-3-15,75.1,55.7,42.1,55.0,45.4,41.5,98,74,35,0.00,0.00,12,3,22,0.00
2013-3-16,76.1,57.4,40.1,48.2,40.8,28.2,99,63,17,0.00,0.00,16,4,30,0.00
2013-3-17,69.6,55.8,41.8,45.3,40.0,34.7,87,59,29,0.00,0.00,9,4,17,0.00
2013-3-18,67.1,52.4,38.6,47.5,43.5,38.0,98,75,42,0.00,0.00,7,2,11,0.00
2013-3-19,58.2,50.6,42.3,50.9,44.7,40.3,97,81,55,0.00,0.00,4,2,9,0.00
2013-3-20,61.4,51.5,45.5,55.2,49.7,44.9,99,94,78,0.00,0.00,7,2,16,0.08
2013-3-21,67.3,52.5,38.3,49.0,41.0,36.7,99,68,37,0.00,0.00,7,3,15,0.43
2013-3-22,68.1,52.4,37.2,40.8,34.9,25.8,96,58,21,0.00,0.00,8,3,13,0.00
2013-3-23,68.4,51.7,36.9,42.9,38.2,32.4,95,65,29,0.00,0.00,6,2,12,0.00
2013-3-24,71.0,52.8,38.7,48.8,43.0,38.0,97,74,34,0.00,0.00,8,3,12,0.00
2013-3-25,59.3,47.9,41.0,47.1,43.5,40.6,100,86,59,0.00,0.00,8,2,16,0.00
2013-3-26,66.4,51.5,42.4,49.6,44.6,41.7,99,80,45,0.00,0.00,7,3,13,0.00
2013-3-27,61.4,51.9,44.1,52.4,47.7,43.0,98,86,66,0.00,0.00,6,2,14,0.00
2013-3-28,61.7,54.0,49.4,55.2,51.3,48.5,99,91,73,0.00,0.00,4,2,8,0.00
2013-3-29,76.0,59.0,46.9,54.7,51.3,46.8,100,79,42,0.00,0.00,6,3,12,0.07
2013-3-30,65.8,55.8,50.4,55.4,51.1,48.8,98,85,63,0.00,0.00,6,2,14,0.00
2013-3-31,60.7,55.2,50.2,56.2,53.3,48.3,99,94,78,0.00,0.00,6,2,15,0.01
2013-4-1,64.0,55.7,49.2,54.1,51.7,48.3,100,87,68,0.00,0.00,5,2,13,1.45
2013-4-2,68.6,54.0,46.1,56.1,49.2,46.0,100,87,51,0.00,0.00,7,3,12,0.00
2013-4-3,74.6,55.2,47.1,55.5,50.2,47.1,100,86,50,0.00,0.00,7,3,14,0.00
2013-4-4,60.6,53.7,48.9,57.4,52.4,47.6,100,95,87,0.00,0.00,8,3,16,0.00
2013-4-5,63.0,56.2,51.5,54.5,52.1,49.9,100,87,66,0.00,0.00,9,3,20,0.00
2013-4-6,52.8,52.2,51.6,52.5,51.2,50.6,99,96,92,0.00,0.00,3,1,5,0.00
2013-4-10,86.2,77.2,64.4,52.1,46.7,38.5,55,36,20,0.00,0.00,12,6,25,0.00
2013-4-11,76.3,63.5,50.6,47.9,44.0,39.5,82,51,31,0.00,0.00,10,5,22,0.00
2013-4-12,78.1,57.3,43.1,54.5,46.9,38.1,97,73,24,0.00,0.00,8,3,16,0.00
2013-4-13,75.9,58.6,44.1,49.2,41.6,33.7,98,60,25,0.00,0.00,11,4,22,0.00
2013-4-14,71.4,56.4,42.1,45.1,37.8,21.2,87,54,18,0.00,0.00,19,6,34,0.00
2013-4-15,60.8,52.5,44.5,44.5,33.9,27.6,91,53,30,0.00,0.00,15,8,31,0.00
2013-4-16,68.9,55.9,45.0,38.7,30.7,22.8,62,41,19,0.00,0.00,9,6,20,0.00
2013-4-17,72.6,57.8,42.4,39.7,33.2,20.8,73,45,14,0.00,0.00,7,4,17,0.00
2013-4-18,76.6,59.4,43.1,47.8,39.2,31.4,88,54,20,0.00,0.00,7,3,15,0.00
2013-4-19,70.2,52.4,44.6,50.6,45.8,43.0,95,80,48,0.00,0.00,6,1,10,0.00
2013-4-23,82.4,67.4,46.0,46.6,36.4,12.8,95,41,8,0.00,0.00,8,4,16,0.00
2013-4-24,65.1,52.4,44.1,49.8,46.0,43.1,99,80,57,0.00,0.00,8,4,18,0.00
2013-4-25,67.4,54.8,48.9,49.9,46.6,45.0,88,75,51,0.00,0.00,8,3,15,0.00
2013-4-26,70.6,54.4,43.8,54.4,48.1,42.5,97,81,54,0.00,0.00,8,3,14,0.00
2013-4-27,74.6,56.0,47.2,55.9,49.3,45.5,100,81,47,0.00,0.00,8,3,14,0.00
2013-4-28,86.4,60.7,43.6,57.3,49.3,43.4,100,73,29,0.00,0.00,5,2,14,0.00
2013-4-29,90.3,71.3,53.1,54.3,50.0,44.9,91,53,24,0.00,0.00,10,3,20,0.00
2013-4-30,86.1,68.9,51.0,47.2,40.8,28.7,83,43,13,0.00,0.00,7,3,16,0.00
2013-5-1,87.7,68.7,51.1,45.5,29.9,11.9,69,31,7,0.00,0.00,10,4,24,0.00
2013-5-2,90.2,68.5,45.5,43.7,35.9,19.6,82,41,9,0.00,0.00,7,2,16,0.00
2013-5-3,90.6,70.3,45.9,51.0,41.6,32.4,77,42,15,0.00,0.00,6,2,13,0.00
2013-5-4,87.4,64.2,47.2,50.5,44.8,28.8,90,59,13,0.00,0.00,7,3,17,0.00
2013-5-5,62.6,58.4,55.3,50.3,49.1,48.1,82,72,61,0.00,0.00,9,4,22,0.00
2013-5-6,70.0,60.3,50.5,51.8,49.7,46.4,93,70,46,0.00,0.00,6,2,16,0.00
2013-5-7,69.9,59.5,50.0,54.0,50.2,46.0,97,74,44,0.00,0.00,8,3,16,0.00
2013-5-8,66.5,55.3,50.3,53.7,50.2,48.0,97,84,63,0.00,0.00,7,3,14,0.00
2013-5-9,72.7,57.7,47.6,54.5,50.2,46.4,97,79,52,0.00,0.00,8,3,14,0.00
2013-5-10,74.3,58.5,48.0,57.3,51.5,46.9,97,80,54,0.00,0.00,8,3,14,0.00
2013-5-11,85.3,60.9,46.9,60.4,51.9,46.6,100,77,39,0.00,0.00,6,3,10,0.00
2013-5-12,85.4,62.3,46.0,61.7,52.0,45.8,100,74,30,0.00,0.00,7,3,14,0.00
2013-5-13,85.7,64.1,47.4,61.6,52.2,46.4,100,71,32,0.00,0.00,8,3,16,0.00
2013-5-14,89.4,66.3,49.7,56.0,49.2,37.0,92,60,16,0.00,0.00,7,3,16,0.00
2013-5-15,83.2,61.7,43.2,49.5,45.2,41.0,93,60,25,0.00,0.00,8,2,18,0.00
2013-5-16,73.5,63.0,54.5,51.9,49.2,45.7,84,62,42,0.00,0.00,9,4,21,0.00
2013-5-17,71.8,59.2,45.9,47.3,45.2,43.2,91,63,38,0.00,0.00,6,3,15,0.00
2013-5-18,82.5,62.7,42.2,48.3,44.3,39.9,96,58,25,0.00,0.00,8,4,18,0.00
2013-5-19,84.7,67.9,47.7,49.3,43.2,34.6,83,46,17,0.00,0.00,7,3,17,0.00
2013-5-20,88.3,68.1,50.2,51.5,45.1,34.3,89,53,15,0.00,0.00,8,3,15,0.00
2013-5-21,75.3,60.6,47.4,46.2,40.2,32.7,93,53,23,0.00,0.00,10,5,24,0.00
2013-5-22,71.2,57.9,45.9,39.5,32.3,25.8,58,40,19,0.00,0.00,9,6,22,0.00
2013-5-23,72.0,59.1,44.5,42.5,38.8,37.1,76,49,30,0.00,0.00,8,4,16,0.00
2013-5-24,74.9,59.3,41.8,46.2,41.5,35.3,89,55,25,0.00,0.00,5,3,13,0.00
2013-5-25,76.3,59.4,40.9,47.7,43.9,38.0,93,61,34,0.00,0.00,5,2,15,0.00
2013-5-26,72.3,61.9,50.9,51.0,48.5,46.0,90,64,43,0.00,0.00,9,4,22,0.00
2013-5-27,63.4,56.3,48.0,56.7,51.0,44.4,98,83,67,0.00,0.00,5,2,13,0.00
2013-5-28,72.5,59.7,55.2,58.2,56.2,54.8,100,90,56,0.00,0.00,5,2,10,0.00
2013-5-29,78.7,68.9,56.0,54.0,51.0,44.9,83,55,39,0.00,0.00,7,4,18,0.00
2013-5-30,83.7,65.1,44.0,46.5,42.6,35.3,94,50,21,0.00,0.00,7,2,16,0.00
2013-5-31,91.6,69.6,48.4,54.5,47.7,42.6,86,51,21,0.00,0.00,5,2,13,0.00
2013-6-1,95.4,74.0,52.4,58.3,49.7,43.4,90,49,22,0.00,0.00,8,2,19,0.00
2013-6-2,85.7,68.3,52.4,55.9,50.2,47.1,84,56,31,0.00,0.00,8,3,14,0.00
2013-6-3,68.2,58.5,48.7,52.1,49.8,45.3,93,74,55,0.00,0.00,7,3,20,0.00
2013-6-4,66.4,56.2,53.8,52.6,50.6,49.7,88,82,61,0.00,0.00,6,3,14,0.00
2013-6-5,72.0,58.0,52.4,54.5,50.9,49.3,90,79,53,0.00,0.00,5,3,12,0.00
2013-6-6,75.9,59.6,50.7,56.5,51.6,48.6,95,77,50,0.00,0.00,7,4,13,0.00
2013-6-7,89.9,67.2,50.5,62.9,55.4,49.9,99,71,38,0.00,0.00,6,2,11,0.00
2013-6-8,91.6,68.9,55.5,64.3,56.6,52.2,95,69,39,0.00,0.00,8,3,15,0.00
2013-6-9,64.7,59.2,56.0,54.5,53.4,52.5,92,82,69,0.00,0.00,7,3,14,0.00
2013-6-10,62.2,58.0,55.4,56.3,54.7,53.3,98,89,75,0.00,0.00,6,2,14,0.00
2013-6-11,78.0,64.1,54.5,59.0,54.8,51.4,97,75,43,0.00,0.00,5,2,13,0.00
2013-6-12,86.5,65.3,45.1,52.2,41.9,26.2,99,54,11,0.00,0.00,9,3,20,0.00
2013-6-13,84.1,66.2,46.8,46.3,42.7,39.1,80,46,23,0.00,0.00,8,3,19,0.00
2013-6-14,87.9,67.6,50.1,50.6,45.6,28.9,88,53,13,0.00,0.00,7,3,14,0.00
2013-6-15,80.9,61.8,46.1,54.5,49.5,44.2,96,67,38,0.00,0.00,8,3,16,0.00
2013-6-16,87.1,66.8,45.5,52.6,48.0,43.6,96,58,24,0.00,0.00,8,3,18,0.00
2013-6-17,79.4,61.8,48.5,54.0,49.9,44.6,91,67,41,0.00,0.00,8,3,20,0.00
2013-6-18,73.8,63.6,52.4,51.6,47.6,43.1,87,59,34,0.00,0.00,8,4,20,0.00
2013-6-19,80.7,65.6,51.1,48.7,44.1,36.6,78,50,21,0.00,0.00,7,4,18,0.00
2013-6-20,83.5,66.7,48.1,48.6,44.2,35.9,86,49,24,0.00,0.00,8,3,20,0.00
2013-6-21,87.7,68.7,46.8,49.5,45.3,37.6,91,50,22,0.00,0.00,6,2,15,0.00
2013-6-22,90.6,72.2,50.6,52.0,47.4,36.3,86,47,16,0.00,0.00,8,3,16,0.00
2013-6-23,71.2,63.2,55.6,60.0,56.1,49.2,92,78,57,0.00,0.00,5,3,12,0.00
2013-6-24,62.6,59.3,56.6,58.4,56.1,54.0,99,89,79,0.00,0.00,5,2,10,0.00
2013-6-25,63.6,61.1,58.7,62.6,60.6,58.5,100,98,94,0.00,0.00,5,2,16,0.00
2013-6-26,78.9,67.6,60.7,66.2,62.4,60.0,100,85,59,0.00,0.00,5,2,11,1.05
2013-6-27,89.2,71.6,58.0,67.5,62.3,58.0,100,76,46,0.00,0.00,5,2,10,0.00
2013-6-28,98.0,78.7,59.7,70.7,61.3,47.2,99,62,19,0.00,0.00,6,2,15,0.00
2013-6-29,102.8,81.0,59.6,66.6,60.9,52.0,95,56,23,0.00,0.00,4,2,10,0.00
2013-6-30,93.6,75.3,58.2,65.9,60.3,56.0,95,63,38,0.00,0.00,5,2,10,0.00
2013-7-1,94.7,74.1,56.1,68.0,60.2,54.7,97,66,36,0.00,0.00,6,2,12,0.00
2013-7-2,90.5,70.8,58.6,65.5,59.1,55.8,91,69,42,0.00,0.00,6,3,16,0.00
2013-7-3,87.8,70.1,57.8,64.7,59.0,56.0,96,71,42,0.00,0.00,6,2,12,0.00
2013-7-4,98.5,78.5,62.5,66.1,56.6,41.0,84,53,17,0.00,0.00,8,3,20,0.00
2013-7-5,82.3,67.5,53.9,58.8,52.2,42.6,85,60,32,0.00,0.00,6,3,12,0.00
2013-7-6,77.3,62.6,52.4,58.0,53.7,50.9,96,75,51,0.00,0.00,5,2,12,0.00
2013-7-7,80.2,61.7,52.5,59.5,53.4,50.5,94,77,44,0.00,0.00,5,3,12,0.00
2013-7-8,82.4,62.4,52.1,59.4,53.7,50.5,95,76,45,0.00,0.00,5,2,10,0.00
2013-7-9,92.6,67.5,51.8,58.5,53.3,45.7,100,69,23,0.00,0.00,5,2,10,0.00
2013-7-10,80.8,61.5,50.0,57.7,52.1,49.4,98,75,39,0.00,0.00,7,3,11,0.00
2013-7-11,74.7,58.6,50.0,56.9,51.6,48.1,97,79,52,0.00,0.00,6,3,13,0.00
2013-7-12,78.0,60.7,51.9,58.4,53.0,50.3,96,78,51,0.00,0.00,6,2,12,0.00
2013-7-13,84.2,63.3,47.4,58.6,52.2,46.3,97,72,33,0.00,0.00,6,2,12,0.00
2013-7-14,77.9,60.3,51.2,57.3,52.7,50.1,99,79,45,0.00,0.00,6,3,14,0.00
2013-7-15,69.3,57.1,50.1,54.5,51.3,49.2,98,82,58,0.00,0.00,6,3,13,0.00
2013-7-16,68.7,58.7,53.3,56.4,53.3,51.3,96,83,65,0.00,0.00,5,3,13,0.00
2013-7-17,80.0,61.9,49.5,60.0,54.5,48.2,98,79,47,0.00,0.00,5,2,13,0.00
2013-7-18,80.4,62.7,53.5,60.6,55.4,52.1,100,80,45,0.00,0.00,6,3,12,0.00
2013-7-19,84.2,63.2,51.4,61.9,54.6,51.2,100,78,44,0.00,0.00,6,2,12,0.00
2013-7-20,85.4,62.3,49.8,61.5,53.7,49.6,100,77,42,0.00,0.00,6,2,12,0.00
2013-7-21,80.5,62.6,52.6,57.0,52.6,50.3,94,73,42,0.00,0.00,6,3,14,0.00
2013-7-22,83.1,64.3,50.2,58.4,53.8,48.5,95,72,39,0.00,0.00,6,2,17,0.00
2013-7-23,79.0,67.4,58.3,59.0,56.3,53.0,88,69,46,0.00,0.00,4,2,9,0.00
2013-7-24,83.2,65.9,53.5,60.6,55.7,52.8,99,73,43,0.00,0.00,6,3,12,0.00
2013-7-25,79.0,62.5,52.9,57.9,53.9,51.9,98,76,47,0.00,0.00,6,3,12,0.00
2013-7-26,79.1,61.7,52.6,59.8,53.8,50.8,96,78,50,0.00,0.00,6,3,15,0.00
2013-7-27,77.2,60.5,53.0,58.5,53.4,50.8,96,80,52,0.00,0.00,5,3,12,0.00
2013-7-28,72.5,58.5,52.6,57.0,52.6,50.7,94,82,56,0.00,0.00,5,2,13,0.00
2013-7-29,69.4,58.2,53.6,55.5,52.6,51.0,94,82,61,0.00,0.00,7,3,16,0.00
2013-7-30,74.1,60.5,53.0,58.2,53.7,51.2,96,80,56,0.00,0.00,5,2,12,0.00
2013-7-31,78.1,63.4,52.6,58.3,54.2,50.6,99,75,48,0.00,0.00,6,3,13,0.00
2013-8-1,80.3,62.9,46.0,55.9,51.2,44.6,96,70,43,0.00,0.00,6,2,13,0.00
2013-8-2,85.8,64.8,46.8,55.1,50.6,44.9,95,66,28,0.00,0.00,6,2,13,0.00
2013-8-3,78.3,59.5,49.3,57.1,52.0,46.4,99,79,46,0.00,0.00,6,2,12,0.00
2013-8-4,76.0,58.6,51.1,56.6,52.2,50.2,97,82,48,0.00,0.00,5,2,12,0.00
2013-8-5,74.2,59.1,51.2,56.6,52.2,49.8,96,80,52,0.00,0.00,5,2,12,0.00
2013-8-6,74.3,59.1,51.8,55.7,52.1,50.0,96,80,51,0.00,0.00,7,3,15,0.00
2013-8-7,69.3,60.5,55.2,56.4,54.2,52.5,94,80,63,0.00,0.00,6,2,14,0.00
2013-8-8,74.6,60.7,50.5,58.4,54.0,49.4,97,80,55,0.00,0.00,6,2,14,0.00
2013-8-9,76.2,59.6,53.0,56.9,53.5,51.8,98,82,49,0.00,0.00,6,3,13,0.00
2013-8-10,76.5,62.0,55.1,58.9,54.9,52.9,95,79,53,0.00,0.00,6,2,14,0.00
2013-8-11,78.2,62.0,54.2,60.0,55.6,52.8,100,82,51,0.00,0.00,6,3,12,0.00
2013-8-12,81.6,61.6,52.3,60.0,54.3,50.9,100,81,43,0.00,0.00,6,2,12,0.00
2013-8-13,92.0,67.1,51.7,59.5,53.8,47.4,99,69,22,0.00,0.00,6,2,14,0.00
2013-8-14,93.5,68.5,48.2,59.5,53.3,46.7,96,65,24,0.00,0.00,4,2,13,0.00
2013-8-15,87.8,70.0,53.9,64.4,59.4,51.2,94,72,44,0.00,0.00,6,2,14,0.00
2013-8-16,90.1,71.3,57.0,64.8,59.1,54.4,100,72,32,0.00,0.00,6,2,14,0.00
2013-8-17,87.9,72.3,52.5,61.1,56.8,50.7,96,62,37,0.00,0.00,5,2,11,0.00
2013-8-18,95.9,75.6,54.4,63.1,57.7,52.6,95,59,28,0.00,0.00,5,2,11,0.00
2013-8-19,85.9,69.9,59.2,62.1,57.8,54.9,89,68,38,0.00,0.00,5,2,11,0.00
2013-8-20,81.2,64.8,58.1,59.9,57.2,55.0,93,78,43,0.00,0.00,6,3,15,0.00
2013-8-21,77.4,63.7,53.7,57.8,55.0,51.2,91,75,47,0.00,0.00,5,2,13,0.00
2013-8-22,75.4,61.4,53.2,57.6,54.1,50.7,96,79,52,0.00,0.00,6,3,12,0.00
2013-8-23,79.3,63.7,51.5,59.0,54.6,49.5,94,75,49,0.00,0.00,5,2,11,0.00
2013-8-24,84.4,67.5,49.4,58.4,55.0,47.8,96,68,40,0.00,0.00,9,3,20,0.00
2013-8-25,78.3,66.3,56.5,62.0,58.4,54.7,94,77,56,0.00,0.00,6,3,14,0.00
2013-8-26,83.1,67.7,56.3,59.0,56.4,52.2,98,71,39,0.00,0.00,6,2,14,0.00
2013-8-27,87.4,67.4,50.3,57.6,53.6,48.2,95,66,33,0.00,0.00,7,2,15,0.00
2013-8-28,83.6,65.8,54.6,63.1,58.7,53.5,100,81,49,0.00,0.00,7,2,13,0.00
2013-8-29,85.9,69.5,59.3,63.1,60.5,58.5,98,76,46,0.00,0.00,6,2,15,0.00
2013-8-30,94.6,72.6,55.2,62.0,57.8,52.0,97,66,26,0.00,0.00,6,2,11,0.00
2013-8-31,86.8,67.6,52.2,59.6,54.8,47.8,94,69,28,0.00,0.00,5,2,11,0.00
2013-9-1,83.1,66.3,54.3,59.5,56.4,53.8,99,74,39,0.00,0.00,6,2,15,0.00
2013-9-2,81.9,67.9,54.7,61.9,58.5,53.5,96,74,45,0.00,0.00,8,2,19,0.00
2013-9-3,81.0,66.2,51.0,57.3,54.4,49.3,97,70,35,0.00,0.00,7,2,14,0.00
2013-9-4,83.5,66.8,51.0,58.3,54.8,49.8,97,69,41,0.00,0.00,5,2,13,0.00
2013-9-5,85.1,68.5,50.9,56.4,53.0,49.4,95,62,33,0.00,0.00,5,2,12,0.00
2013-9-6,92.8,71.1,51.3,55.5,49.6,44.1,92,53,19,0.00,0.00,6,2,13,0.00
2013-9-7,95.2,72.3,52.2,53.5,48.2,37.3,86,51,14,0.00,0.00,6,2,16,0.00
2013-9-8,92.2,67.6,50.4,59.8,53.5,48.8,98,66,26,0.00,0.00,5,2,10,0.00
2013-9-9,96.9,67.1,49.6,61.7,53.2,47.7,94,67,22,0.00,0.00,6,2,12,0.00
2013-9-10,69.3,61.2,54.4,60.4,57.2,52.8,98,87,69,0.00,0.00,8,2,18,0.00
2013-9-11,68.3,63.6,61.0,61.0,59.9,58.8,99,88,73,0.00,0.00,4,2,9,0.00
2013-9-12,80.5,65.6,57.1,62.9,58.9,55.5,97,81,54,0.00,0.00,6,2,11,0.01
2013-9-13,82.7,64.0,54.3,59.4,56.2,52.2,100,79,44,0.00,0.00,6,2,11,0.00
2013-9-14,81.1,62.1,52.2,59.4,55.1,50.5,100,81,48,0.00,0.00,5,2,12,0.00
2013-9-15,80.0,62.6,49.9,58.5,55.0,48.8,100,79,46,0.00,0.00,7,2,16,0.00
2013-9-16,86.8,65.8,52.6,59.0,55.2,50.9,100,74,34,0.00,0.00,5,2,12,0.00
2013-9-17,81.7,66.0,49.4,52.9,49.4,47.0,96,60,31,0.00,0.00,8,4,20,0.00
2013-9-18,83.6,66.6,50.9,50.1,46.4,36.8,86,54,20,0.00,0.00,7,2,16,0.00
2013-9-19,89.4,67.4,46.7,50.6,44.4,22.1,91,54,9,0.00,0.00,6,2,12,0.00
2013-9-20,76.8,59.3,44.4,61.7,51.6,42.4,96,78,51,0.00,0.00,8,3,20,0.00
2013-9-21,69.3,62.2,55.5,60.9,56.2,50.9,99,82,56,0.00,0.00,6,3,17,0.00
2013-9-22,75.8,61.3,46.6,54.2,51.2,46.4,99,73,42,0.00,0.00,5,2,15,0.00
2013-9-23,82.8,65.9,50.1,59.7,54.8,48.9,97,71,40,0.00,0.00,6,2,13,0.00
2013-9-24,80.2,66.1,57.1,56.9,50.2,45.6,93,60,30,0.00,0.00,9,4,19,0.00
2013-9-25,73.4,61.6,49.0,47.0,43.4,38.9,88,54,29,0.00,0.00,8,4,21,0.00
2013-9-26,77.5,62.9,43.9,43.4,38.8,30.0,84,45,18,0.00,0.00,6,3,15,0.00
2013-9-27,80.3,61.2,45.1,44.4,39.4,29.2,86,53,15,0.00,0.00,6,2,15,0.00
2013-9-28,80.7,61.6,44.4,54.9,43.6,29.4,89,60,15,0.00,0.00,6,2,14,0.00
2013-9-29,68.5,60.8,54.3,63.0,58.3,52.1,99,91,78,0.00,0.00,4,2,8,0.00
2013-9-30,72.0,63.6,53.7,65.1,61.0,50.3,99,92,75,0.00,0.00,5,2,10,0.00
2013-10-1,79.6,60.6,44.1,51.0,46.7,42.0,98,66,27,0.00,0.00,5,2,10,0.02
2013-10-2,81.4,62.3,47.1,49.3,42.0,27.8,97,56,14,0.00,0.00,7,3,17,0.00
2013-10-3,77.4,65.6,55.1,38.4,29.9,12.1,49,30,9,0.00,0.00,12,6,25,0.00
2013-10-4,82.7,69.2,53.3,33.7,23.3,16.1,47,20,9,0.00,0.00,16,5,26,0.00
2013-10-5,86.3,62.8,41.6,35.7,29.6,14.8,68,35,10,0.00,0.00,4,2,12,0.00
2013-10-6,85.7,61.4,41.6,39.5,33.8,27.9,73,42,14,0.00,0.00,4,2,9,0.00
2013-10-7,84.5,60.9,42.3,46.1,37.4,29.3,79,49,14,0.00,0.00,4,1,10,0.00
2013-10-8,78.0,59.3,43.3,46.4,42.0,38.1,92,58,25,0.00,0.00,5,2,13,0.00
2013-10-9,75.9,61.8,49.1,42.1,39.9,33.9,74,48,22,0.00,0.00,7,3,16,0.00
2013-10-10,74.0,58.0,45.3,49.6,42.6,39.5,83,60,34,0.00,0.00,6,2,15,0.00
2013-10-11,70.5,54.2,44.4,49.6,46.4,43.4,99,78,41,0.00,0.00,5,2,11,0.00
2013-10-12,73.7,55.0,41.0,50.3,44.4,39.8,99,72,35,0.00,0.00,5,2,11,0.00
2013-10-13,76.3,57.4,41.5,47.3,42.1,33.9,92,63,22,0.00,0.00,6,2,14,0.00
2013-10-14,80.6,57.7,40.6,43.0,38.6,35.8,92,56,21,0.00,0.00,6,2,13,0.00
2013-10-15,84.9,58.7,39.1,41.0,33.7,22.7,87,49,10,0.00,0.00,6,2,12,0.00
2013-10-16,83.9,58.3,38.3,37.0,32.5,26.5,81,45,13,0.00,0.00,6,1,11,0.00
2013-10-17,84.0,58.7,39.8,39.7,34.9,31.5,77,47,16,0.00,0.00,6,2,12,0.00
2013-10-18,81.7,57.6,39.4,44.8,39.6,35.5,89,58,22,0.00,0.00,4,1,9,0.00
2013-10-19,86.5,61.2,38.4,43.4,39.0,27.0,95,53,12,0.00,0.00,4,2,11,0.00
2013-10-20,81.7,54.8,38.0,48.1,42.3,35.5,98,69,25,0.00,0.00,4,1,9,0.00
2013-10-21,73.4,53.0,43.4,51.1,46.5,43.0,99,82,42,0.00,0.00,4,2,8,0.00
2013-10-22,80.3,53.9,42.4,50.3,45.8,42.1,100,80,33,0.00,0.00,4,2,8,0.00
2013-10-23,75.5,51.7,42.2,52.6,46.0,42.1,99,84,44,0.00,0.00,5,2,9,0.00
2013-10-24,66.5,51.7,43.7,49.1,47.0,42.2,100,86,50,0.00,0.00,5,2,10,0.00
2013-10-25,72.5,52.4,39.0,50.7,45.2,38.5,99,80,43,0.00,0.00,4,1,8,0.00
2013-10-26,83.7,56.5,38.4,48.9,42.7,36.5,97,68,22,0.00,0.00,4,1,11,0.00
2013-10-27,64.3,50.2,40.4,49.3,44.4,38.0,100,83,51,0.00,0.00,6,2,22,0.00
2013-10-28,66.0,53.9,40.3,45.3,41.6,38.1,94,66,39,0.00,0.00,6,2,22,0.00
2013-10-29,64.7,52.7,41.0,46.0,44.0,38.8,95,75,48,0.00,0.00,5,2,11,0.00
2013-10-30,68.3,50.3,36.8,46.1,40.6,36.0,98,73,40,0.00,0.00,4,2,12,0.00
2013-10-31,75.3,55.2,36.9,44.7,41.3,34.9,94,64,33,0.00,0.00,4,2,8,0.00
2013-11-1,79.5,55.3,40.0,46.1,42.3,37.6,94,68,27,0.00,0.00,3,1,8,0.00
2013-11-2,76.3,57.3,41.8,49.3,41.8,23.2,95,62,16,0.00,0.00,8,3,20,0.00
2013-11-3,66.0,54.8,42.3,36.4,30.8,25.6,72,42,22,0.00,0.00,10,3,20,0.00
2013-11-4,72.8,54.1,34.4,35.9,30.3,21.5,88,48,15,0.00,0.00,7,3,15,0.00
2013-11-5,76.9,56.6,40.1,40.5,36.2,32.1,77,51,20,0.00,0.00,5,2,10,0.00
2013-11-6,76.4,57.9,44.3,47.9,40.7,34.7,87,57,27,0.00,0.00,3,1,8,0.00
2013-11-7,75.7,57.8,46.0,50.0,42.0,37.4,95,60,27,0.00,0.00,4,2,9,0.00
2013-11-8,76.4,54.4,40.9,51.3,43.8,35.0,96,73,24,0.00,0.00,7,2,15,0.00
2013-11-9,75.4,52.7,36.0,46.6,41.7,35.0,98,71,31,0.00,0.00,6,2,12,0.00
2013-11-10,66.9,50.8,38.9,49.9,45.0,38.1,98,83,52,0.00,0.00,4,2,10,0.00
2013-11-11,66.8,53.9,40.4,48.2,46.4,38.9,99,79,47,0.00,0.00,5,2,9,0.00
2013-11-12,74.6,58.8,47.4,49.0,47.1,43.6,90,68,37,0.00,0.00,4,2,11,0.00
2013-11-13,80.7,56.6,43.5,52.7,47.8,42.3,98,77,34,0.00,0.00,5,2,9,0.00
2013-11-14,64.8,52.1,43.2,52.8,45.2,27.4,99,81,29,0.00,0.00,5,1,14,0.00
2013-11-15,69.3,52.9,39.7,40.0,36.4,32.2,87,57,26,0.00,0.00,5,2,10,0.00
2013-11-16,68.2,51.9,37.0,47.6,41.1,35.4,95,70,39,0.00,0.00,9,3,18,0.00
2013-11-17,62.6,48.4,36.8,47.5,43.0,36.0,97,83,54,0.00,0.00,4,2,9,0.00
2013-11-18,56.7,47.6,37.1,48.9,43.3,36.6,99,86,68,0.00,0.00,5,2,9,0.00
2013-11-19,55.5,53.0,49.5,55.5,52.8,48.7,100,99,96,0.00,0.00,4,1,8,0.00
2013-11-20,61.5,55.6,51.1,57.9,54.7,50.8,100,97,83,0.00,0.00,4,2,9,0.00
2013-11-21,63.6,56.2,49.4,52.0,31.4,9.5,100,53,14,0.00,0.00,17,6,35,0.00
2013-11-22,74.0,65.2,56.8,10.5,4.8,0.5,14,9,6,0.00,0.00,18,10,33,0.00
2013-11-23,69.0,59.0,38.5,33.4,21.0,6.1,81,28,10,0.00,0.00,12,4,24,0.00
2013-11-24,65.7,46.5,32.3,46.0,36.4,30.4,96,72,32,0.00,0.00,4,2,9,0.00
2013-11-25,65.0,46.5,33.8,42.3,38.7,33.0,97,78,39,0.00,0.00,4,1,9,0.00
2013-11-26,62.3,47.6,38.2,43.9,40.4,36.7,97,78,44,0.00,0.00,4,1,8,0.00
2013-11-27,66.0,48.8,35.9,43.6,40.7,35.2,98,77,43,0.00,0.00,3,1,7,0.00
2013-11-28,72.5,51.0,38.2,44.3,41.0,37.4,98,73,31,0.00,0.00,4,1,10,0.00
2013-11-29,70.2,50.7,37.5,45.3,41.5,36.5,97,75,36,0.00,0.00,4,2,9,0.00
2013-11-30,70.9,51.5,39.9,46.8,42.8,39.1,97,76,35,0.00,0.00,4,1,7,0.00
2013-12-1,71.8,52.1,38.6,49.2,44.2,38.0,98,78,39,0.00,0.00,5,1,8,0.00
2013-12-2,67.0,51.6,36.9,52.3,45.3,36.4,99,81,49,0.00,0.00,10,2,18,0.00
2013-12-3,56.2,50.0,37.5,51.7,31.7,23.4,93,52,28,0.00,0.00,11,4,21,0.00
2013-12-4,54.0,38.7,28.1,31.3,26.8,20.4,93,67,27,0.00,0.00,6,2,10,0.00
2013-12-5,51.2,35.2,24.5,30.9,25.9,20.1,94,73,33,0.00,0.00,4,1,9,0.00
2013-12-6,44.7,35.5,23.7,43.0,31.1,21.7,98,86,46,0.00,0.00,6,2,16,0.00
2013-12-7,46.7,39.5,28.2,40.7,27.8,20.4,98,65,38,0.00,0.00,10,4,19,0.00
2013-12-8,47.4,33.8,26.3,27.4,23.8,18.0,93,71,31,0.00,0.00,8,2,12,0.00
2013-12-9,50.8,33.7,22.0,27.2,23.8,20.2,94,71,34,0.00,0.00,5,2,9,0.00
2013-12-10,53.4,36.3,23.9,29.8,26.0,22.1,94,71,30,0.00,0.00,3,1,6,0.00
2013-12-11,57.4,39.2,26.7,34.2,30.3,25.6,96,75,38,0.00,0.00,4,1,8,0.00
2013-12-12,52.0,34.3,27.4,35.7,30.5,26.2,97,87,53,0.00,0.00,2,1,5,0.00
2013-12-13,64.1,45.4,29.1,38.5,34.9,28.1,97,71,34,0.00,0.00,3,1,6,0.00
2013-12-14,65.3,43.9,31.4,40.5,36.0,30.7,98,78,33,0.00,0.00,5,1,8,0.00
2013-12-15,62.1,43.1,29.6,41.1,36.6,29.0,98,81,43,0.00,0.00,3,1,6,0.00
2013-12-16,65.3,47.0,34.0,41.4,38.3,33.1,98,76,36,0.00,0.00,4,1,10,0.00
2013-12-17,64.5,47.5,34.2,41.7,38.2,33.5,98,74,37,0.00,0.00,3,1,6,0.00
2013-12-18,60.2,45.9,36.4,46.0,40.3,34.6,97,83,55,0.00,0.00,4,2,12,0.00
2013-12-19,62.3,51.4,35.8,36.1,28.9,16.0,71,45,20,0.00,0.00,9,5,21,0.00
2013-12-20,68.1,45.6,30.5,34.3,27.9,18.9,87,56,16,0.00,0.00,4,2,8,0.00
2013-12-21,68.2,52.3,42.0,46.1,42.4,34.6,96,72,39,0.00,0.00,7,2,11,0.00
2013-12-22,67.0,49.1,36.3,45.1,41.1,35.7,98,77,45,0.00,0.00,4,2,9,0.00
2013-12-23,67.5,48.4,35.4,44.9,39.9,34.9,98,77,40,0.00,0.00,3,1,7,0.00
2013-12-24,70.0,49.6,37.4,46.2,41.8,36.6,98,79,40,0.00,0.00,3,1,5,0.00
2013-12-25,41.4,38.4,35.7,40.8,37.8,35.2,98,98,97,0.00,0.00,1,1,3,0.00
2013-12-26,66.8,48.3,32.2,37.3,34.7,31.3,97,65,29,0.00,0.00,3,1,5,0.00
2013-12-27,56.4,42.5,32.5,41.8,36.0,31.3,97,80,46,0.00,0.00,3,1,6,0.00
2013-12-28,72.0,45.5,28.7,40.8,35.2,27.9,98,73,29,0.00,0.00,5,2,10,0.00
2013-12-29,66.9,46.2,32.1,34.5,30.0,25.9,90,59,22,0.00,0.00,5,2,10,0.00
2013-12-30,63.8,44.9,30.4,38.5,32.8,28.4,94,67,33,0.00,0.00,4,1,7,0.00
2013-12-31,64.3,44.9,35.0,43.4,37.2,33.6,97,78,36,0.00,0.00,5,1,9,0.00
2014-1-1,67.3,45.3,30.6,42.0,35.5,29.7,97,75,28,0.00,0.00,3,1,6,0.00
2014-1-2,65.6,47.2,34.5,41.6,37.6,33.4,97,74,36,0.00,0.00,3,1,6,0.00